Погода в Курске

Погода в Курске : погода сейчас, прогноз погоды и архив. Всё, что Вы хотите узнать о погоде в Курске!

Хотите узнать прогноз погоды в Курске? Тогда Вам сюда: Погода в Курске

Поиск расширенной информации на нашем сайте:

Другие новости

Новости СМИ2

Главная страница сайта

Новости сайта

03.07.2017

Напоминаем, что на нашем специализированном сайте Метеоцентр.Азия вы можете получить высокодетализированные автоматические прогнозы погоды по пунктам России, СНГ и мира в авиационном формате (включающие направление и скорость ветра, видимость, явления погоды, количество и форму облачности, нижнюю и верхнюю границу облачности).


Погода в Курске - сегодня

Время (UTC), дата Ветер
(°,м/с) 
Видим.   Явления Облачность Т
(°С)
Тd
(°С)
f(%) Тe
(°С)
Pmin
(гПа)
dP
(гПа)
Po
(мм)
O2
(г/м3)
Тmin Tmax R s Состояние
почвы
18 17.11.17 150 (ЮВ) 4000 м  дымка  8/8 600 м 
[Sc]
+0.1 -0.9 93 -1  1025.8  -1  746  301    +2.7       
21 17.11.17 170 (Ю) 10 км    9/9 600 м 
[Sc]
+0.1 -1.5 89 -1  1024.9  -0.8  745  300           
00 18.11.17 190 (Ю) 10 км    8/8 600 м 
[Sc]
+0.6 -1.6 85 1023.8  -1.1  745  300           
03 18.11.17 220 (ЮЗ) 10 км    8/8 600 м 
[Sc]
+0.6 -1.6 85 1022.9  -0.8  744  299  -0.4         
06 18.11.17 210 (ЮЗ) 10 км    10/10 600 м 
[Sc]
+1 -1.4 84 1022.5  -0.4  744  299  -0.1        замёрзшая 
09 18.11.17 200 (Ю) 10 км    9/5 600 м средняя, верхняя 
[Sc|Ac trans|Cc]
+2.8 -0.9 77 +2  1021.9  -0.3  743  297           
12 18.11.17 190 (Ю) 10 км    10/10 600 м 
[Sc]
+2.6 -0.7 79 +1  1020.3  -1.5  742  296           
15 18.11.17 170 (Ю) 10 км    10/10 600 м 
[Sc]
+2.1 -1.1 79 +1  1019.5  -0.9  742  297           
18 18.11.17 160 (Ю) 4000 м  слаб. ливневой дождь со снегом  10/10 600 м кучево-дожд. 
[Cb cap]
+1.1 -0.4 90 1018.5  -1  741  297    +3.4  0.4     
21 18.11.17 150 (ЮВ) 4000 м  дымка{ливн. осадки}  10/10 600 м 
[Sc]
+1.1 -0.3 90 1017.1  -1.3  740  297           
00 19.11.17 150 (ЮВ) 1000 м  слаб. морось{ливн. осадки}  10/10 300 м 
[St]
+0.4 -0.3 95 1015.7  -1.4  739  297           
03 19.11.17 140 (ЮВ) 1000 м  дымка{морось}  10/10 200 м 
[St]
+0.4 -0.2 96 -1  1013.8  -1.8  737  297  +0.2       
06 19.11.17 140 (ЮВ) 1000 м  дымка{морось}  10/10 300 м 
[St]
+0.6 -0.1 95 1012.8  -1  737  296  +0.2    0.9    влажная 
09 19.11.17 160 (Ю) 4000 м  дымка{ливн. осадки}  10/10 600 м 
[Sc]
+1.3 +0.3 93 1011.5  -1.2  736  295           
12 19.11.17 170 (Ю) 1000 м  слаб. морось{ливн. осадки}  10/10 300 м 
[St]
+1.6 +0.8 94 +1  1009.8  -1.6  734  294           
15 19.11.17 210 (ЮЗ) 4000 м  слаб. ливневой дождь{морось}  10/10 600 м кучево-дожд. 
[Cb cap]
+1.7 +0.6 92 +2  1009.9  0.1  735  294         
18 19.11.17 210 (ЮЗ) 4000 м  слаб. ливневой дождь{морось}  10/10 600 м кучево-дожд. 
[Cb cap]
+1.2 +0.4 94 +1  1010.1  0.2  735  295    +1.9     
21 19.11.17 220 (ЮЗ) 1000 м  дымка{ливн. осадки}  10/10 200 м 
[St]
+1.4 +0.7 95 +1  1011.3  1.1  736  295           
00 20.11.17 300 (СЗ) 0500 м  туман{ливн. осадки}  ?/?  
+1.6 +1 96 +2  1011.6  0.3  736  295           
03 20.11.17 тихо ()   2000 м  в посл. час туман  10/10 600 м 
[Sc]
+1.7 +1 95 +2  1011.5  0.1  736  294  +1.2       
06 20.11.17 080 (В) 0200 м  туман  н/о 
+1.6 +1 96 +2  1012.3  0.7  736  295  +1.2    0.0    влажная 
09 20.11.17 030 (СВ) 4000 м  в посл. час ливневой дождь{туман}  10/10 600 м кучево-дожд. 
[Cb cap]
+2.3 +0.9 90 +3  1011.9  -0.3  736  294           
12 20.11.17 030 (СВ) 4000 м  слаб. дождь{ливн. осадки}  10/10 300 м 
[Frnb|Ns]
+1.8 +0.7 92 +1  1010.5  -1.4  735  294           
15 20.11.17 020 (С) 4000 м  слаб. снег{дождь}  10/10 300 м 
[Frnb|Ns]
+0.8 +0.1 95 1009.3  -1.3  734  295         
18 20.11.17 350 (С) 2000 м  снег{дождь} [диам. отлож. мокр. снега 3 мм]  10/10 300 м 
[Frnb|Ns]
-0 -0.6 96 -1  1007.7  -1.6  733  295    +2.3     
Время (UTC), дата Ветер
(°,м/с) 
Видим.   Явления Облачность Т
(°С)
Тd
(°С)
f(%) Тe
(°С)
Pmin
(гПа)
dP
(гПа)
Po
(мм)
O2
(г/м3)
Тmin Tmax R s Состояние
почвы

Для получения пояснительной информации подведите курсор к названию столбца.

ПОГОДА в Курске - архив

Всё, что Вы хотите узнать о погоде в Курске - удобно и подробно!

Выберите нужную дату (начиная с 1 января 2015* года) и нажмите кнопку "Найти".
Будут отображены архивные сводки погоды по пункту Курск, начиная с указанной даты.


Отображать данные в формате CSV (для использования в таблицах Excel)


Внимание! Наш архив погоды предназначен исключительно для личного некоммерческого использования в познавательных целях. Если Вам необходимы официальные справки о состоянии погоды (для производственных, юридических, коммерческих и т.п. целей), обращайтесь в органы Росгидромета.

*Примечание: данная дата относится к архиву по метеостанциям СССР (Россия, СНГ, Балтия).
Архив по метеостанциям Зарубежной Европы и Азии (кроме Китая) хранится 10 дней, по другим регионам земного шара (Китай, Африка, Америка, Австралия, Океания) - 1 день.

Курск - район местоположения метеостанции


Название, широта, долгота, высота метеостанции:
Курск 51.8°ш. 36.2°д. 247 м над ур. моря [Российская Федерация]

Дополнительная информация

В oтличие oт бoльшинства пoгoдных сайтoв мы публикуем пoдрoбную метеoинфoрмацию в детальнoм прoфессиoнальнoм фoрмате.

Характеристики температуры и влажнoсти вoздуха измеряются на высoте 2 м в тени вдали oт зданий и деревьев.
Скoрoсть ветра измеряется на высoте 10 м (на урoвне рoста челoвека скoрoсть ветра ниже в 1.5-2 раза). Если метеoстанция нахoдится в гoрoде или в лесу, тo скoрoсть ветра занижена на 2-4 м/с пo сравнению с oткрытым местoм. Скoрoсть ветра над акватoриями крупных рек и oзёр, а также на вершинах хoлмoв на 2-5 м/с выше, чем в oбычных услoвиях.
Атмoсфернoе давление в разных тoчках местнoсти мoжет значительнo oтличаться oт давления на метеoстанции, в зависимoсти oт услoвий рельефа (при пoдъёме на 10 м давление пoнижается примернo на 1 мм рт.ст.).